This demonstration page uses our WeatherBlox Daily Observations layout. Learn more.

Left ArrowRight Arrow

44.8408, -93.29828

Hourly Observations for February 1, 2022

Temp ( °F °C ) Dew Point ( °F °C ) Humidity (%) Winds ( mph kmh ) Pressure ( in mb ) Visibility ( mi km ) Precip ( " mm )
12:53 am 00:53 Mostly Clear 33 0.6 23 -5 66 66 S 10 17 29.52 1000 10 16 0.00 0.00
1:53 am 01:53 Mostly Clear 35 1.7 24 -4.4 64 64 WSW 14 22 29.53 1000 10 16 0.00 0.00
2:53 am 02:53 Clear 33 0.6 24 -4.4 70 70 W 12 19 29.59 1002 10 16 0.00 0.00
3:53 am 03:53 Mostly Clear 31 -0.6 24 -4.4 76 76 WSW 10 17 29.63 1003 10 16 0.00 0.00
4:53 am 04:53 Cloudy 30 -1.1 24 -4.4 79 79 W 9 15 29.65 1004 9 14 0.00 0.00
5:53 am 05:53 Cloudy 31 -0.6 25 -3.9 79 79 WNW 17 28 29.69 1006 10 16 0.00 0.00
6:23 am 06:23 Cloudy 29 -1.7 20 -6.7 69 69 W 24 39 29.74 1007 10 16 0.00 0.00
6:47 am 06:47 Windy with Snow Likely 27 -3 16 -9 64 64 WNW 23 37 29.77 1008 9 14 0.00 0.00
6:53 am 06:53 Cloudy 25 -3.9 16 -8.9 69 69 WNW 20 31 29.76 1008 9 14 0.00 0.00
7:53 am 07:53 Mostly Cloudy 22 -5.6 11 -11.7 63 63 WNW 20 31 29.81 1010 10 16 0.00 0.00
8:20 am 08:20 Cloudy 20 -6.7 9 -12.8 62 62 W 26 43 29.87 1012 10 16 0.00 0.00
8:27 am 08:27 Mostly Cloudy with Light Snow 20 -6.7 9 -12.8 62 62 W 20 31 29.88 1012 10 16 0.00 0.00
8:53 am 08:53 Cloudy with Light Snow 19 -7.2 10 -12.2 68 68 W 18 30 29.87 1012 9 14 0.00 0.00
9:20 am 09:20 Cloudy 19 -7.2 8 -13.3 62 62 W 24 39 29.91 1013 9 14 0.00 0.00
9:37 am 09:37 Cloudy 18 -7.8 7 -13.9 62 62 W 21 33 29.93 1014 10 16 0.00 0.00
9:53 am 09:53 Cloudy 18 -7.8 7 -13.9 62 62 W 20 31 29.93 1013 10 16 0.00 0.00
10:07 am 10:07 Windy with Snow Likely 18 -7.8 8 -13.3 65 65 W 24 39 29.97 1015 8 13 0.00 0.00
10:25 am 10:25 Windy with Snow Likely 18 -7.8 8 -13.3 65 65 W 23 37 29.97 1015 8 13 0.00 0.00
10:34 am 10:34 Windy with Snow Likely 18 -7.8 7 -13.9 62 62 W 23 37 29.98 1015 3 5 0.00 0.00
10:44 am 10:44 Mostly Cloudy with Light Snow 18 -7.8 8 -13.3 65 65 W 24 39 30.00 1016 3 5 0.00 0.00
10:53 am 10:53 Mostly Cloudy with Light Snow 18 -7.8 7 -13.9 62 62 W 28 44 29.97 1015 8 13 0.00 0.00
10:57 am 10:57 Mostly Cloudy 18 -7.8 7 -13.9 62 62 W 23 37 30.00 1016 9 14 0.00 0.00
11:53 am 11:53 Mostly Cloudy with Light Snow 17 -8.3 7 -13.9 64 64 W 18 30 30.00 1016 9 14 0.00 0.00
12:22 pm 12:22 Mostly Cloudy 18 -7.8 6 -14.4 59 59 W 20 31 30.03 1017 9 14 0.00 0.00
12:30 pm 12:30 Mostly Cloudy 18 -7.8 6 -14.4 59 59 WNW 20 31 30.03 1017 10 16 0.00 0.00
12:53 pm 12:53 Mostly Cloudy 18 -7.8 6 -14.4 59 59 WNW 20 31 30.00 1016 10 16 0.00 0.00
1:53 pm 13:53 Mostly Cloudy 16 -8.9 5 -15 62 62 W 21 33 30.03 1017 10 16 0.00 0.00
2:04 pm 14:04 Mostly Cloudy with Light Snow 16 -8.9 6 -14.4 65 65 W 21 33 30.08 1019 8 13 0.00 0.00
2:17 pm 14:17 Mostly Cloudy 16 -8.9 5 -15 62 62 W 21 33 30.09 1019 9 14 0.00 0.00
2:53 pm 14:53 Mostly Cloudy 16 -8.9 4 -15.6 59 59 W 21 33 30.07 1018 10 16 0.00 0.00
3:53 pm 15:53 Mostly Cloudy 14 -10 3 -16.1 61 61 WNW 17 28 30.10 1019 10 16 0.00 0.00
4:53 pm 16:53 Mostly Cloudy 12 -11.1 3 -16.1 67 67 WNW 20 31 30.13 1020 9 14 0.00 0.00
4:58 pm 16:58 Mostly Cloudy with Light Snow 12 -11.1 2 -16.7 64 64 WNW 18 30 30.18 1022 8 13 0.00 0.00
5:11 pm 17:11 Mostly Cloudy 11 -11.7 1 -17.2 64 64 WNW 22 35 30.19 1022 9 14 0.00 0.00
5:53 pm 17:53 Partly Cloudy 10 -12.2 -1 -18.3 61 61 WNW 15 24 30.17 1022 10 16 0.00 0.00
6:53 pm 18:53 Mostly Clear 8 -13.3 -3 -19.4 60 60 WNW 14 22 30.22 1023 10 16 0.00 0.00
7:53 pm 19:53 Mostly Clear 6 -14.4 -4 -20 63 63 NW 13 20 30.24 1024 10 16 0.00 0.00
8:53 pm 20:53 Mostly Clear 5 -15 -4 -20 66 66 NW 17 28 30.27 1025 10 16 0.00 0.00
9:53 pm 21:53 Mostly Clear 4 -15.6 -5 -20.6 66 66 WNW 12 19 30.30 1026 10 16 0.00 0.00
10:53 pm 22:53 Mostly Clear 3 -16.1 -6 -21.1 66 66 WNW 12 19 30.32 1027 10 16 0.00 0.00
11:53 pm 23:53 Mostly Clear 3 -16.1 -6 -21.1 66 66 NW 14 22 30.35 1028 10 16 0.00 0.00

Powered by AerisWeather